Overview Statistics Trail Chart Weather Telemetry Raw packets
 

This is the latest recevied weather packets stored in our database for station/object KV9E. If no packets are shown the sender has not sent any weather packets the latest 10 day(s).

<< 3 4 5 6 7 8 9 >>
Time Temp. Humidity Pressure Rain* Wind** Luminosity Snow
1788593193 23.33° C 90% 1015 hPa 0 mm - 0 W/m² -
1788592889 23.89° C 89% 1014.9 hPa 0 mm - 0 W/m² -
1788592586 23.89° C 87% 1015.1 hPa 0 mm - 0 W/m² -
1788592281 23.89° C 83% 1015 hPa 0 mm - 0 W/m² -
1788591976 23.33° C 85% 1014.9 hPa 0 mm - 0 W/m² -
1788591672 23.33° C 87% 1015.1 hPa 0 mm - 0 W/m² -
1788591370 23.89° C 88% 1015 hPa 0 mm - 0 W/m² -
1788591064 23.89° C 85% 1015 hPa 0 mm - 0 W/m² -
1788590759 24.44° C 84% 1015.1 hPa 0 mm - 0 W/m² -
1788590455 24.44° C 84% 1015.1 hPa 0 mm - 0 W/m² -
1788590153 24.44° C 84% 1015 hPa 0 mm - 0 W/m² -
1788589850 24.44° C 84% 1015.2 hPa 0 mm - 0 W/m² -
1788589545 24.44° C 84% 1015.2 hPa 0 mm - 0 W/m² -
1788589247 24.44° C 84% 1015.2 hPa 0 mm - 0 W/m² -
1788588934 24.44° C 83% 1015.3 hPa 0 mm - 0 W/m² -
1788588633 24.44° C 84% 1015.3 hPa 0 mm - 0 W/m² -
1788588330 24.44° C 84% 1015.5 hPa 0 mm - 0 W/m² -
1788588025 24.44° C 84% 1015.4 hPa 0 mm - 0 W/m² -
1788587724 24.44° C 85% 1015.4 hPa 0 mm - 0 W/m² -
1788587419 24.44° C 85% 1015.3 hPa 0 mm - 0 W/m² -
1788587114 24.44° C 87% 1015.4 hPa 0 mm - 0 W/m² -
1788586810 24.44° C 87% 1015.3 hPa 0 mm - 0 W/m² -
1788586503 24.44° C 87% 1015.6 hPa 0 mm - 0 W/m² -
1788586199 23.89° C 87% 1015.4 hPa 0 mm - 0 W/m² -
1788585893 23.89° C 89% 1015.2 hPa 0 mm - 0 W/m² -

* Rain latest hour (hover to see other rain measurements)
** Current wind speed in m/s (hover to see current wind gust speed)